Sulphur, LA

4:25 AM CST on February 21, 2018 (GMT -0600)
Sulphur

Weather History for KUXL - November, 2013

Change the Weather History Date:

Thursday, November 7, 2013

  Actual Average (KLCH) Record (KLCH)
Temperature  
Mean Temperature 58 °F -  
Max Temperature 66 °F 71 °F 89 °F (1924)
Min Temperature 49 °F 49 °F 30 °F (1959)
Degree Days  
Heating Degree Days 8    
Growing Degree Days 8 (Base 50)    
Moisture  
Dew Point 45 °F    
Average Humidity 69    
Maximum Humidity 91    
Minimum Humidity 38    
Precipitation  
Precipitation 0.00 in - - ()
Sea Level Pressure  
Sea Level Pressure 30.31 in    
Wind  
Wind Speed 13 mph (North)    
Max Wind Speed 20 mph    
Max Gust Speed 24 mph    
Visibility 10 miles    
Events      
Averages and records for this station are not official NWS values.
T = Trace of Precipitation, MM = Missing Value Source: NWS Daily Summary

Daily Weather History Graph

Daily Weather History Graph

Search for Another Location

Airport or City:

Trip Planner

Search our weather history database for the weather conditions in past years. The results will help you decide how hot, cold, wet, or windy it might be!

Date:

Astronomy

Nov. 07, 2013 Rise Set
Actual Time 6:32 AM CST 5:21 PM CST
Civil Twilight 6:07 AM CST 5:46 PM CST
Nautical Twilight 5:38 AM CST 6:15 PM CST
Astronomical Twilight 5:10 AM CST 6:43 PM CST
Moon 10:37 AM CST (11/7) 9:36 PM CST (11/7)
Length of Visible Light 11h 39m
Length of Day
10h 49m
Waxing Crescent, 23% of the Moon is Illuminated
Nov 7
Waxing Crescent
Nov 9
First Quarter
Nov 17
Full
Nov 25
Last Quarter
Dec 2
New

Hourly Weather History & Observations

Time (CST) Temp. Dew Point Humidity Pressure Visibility Wind Dir Wind Speed Gust Speed Precip Events Conditions
12:15 AM 55.9 °F 51.8 °F 86% 30.21 in 10.0 mi NNW 16.1 mph 24.2 mph N/A   Clear
12:35 AM 55.2 °F 51.1 °F 86% 30.21 in 10.0 mi NNW 19.6 mph 24.2 mph N/A   Clear
12:55 AM 54.5 °F 51.1 °F 88% 30.20 in 10.0 mi NNW 13.8 mph 24.2 mph N/A   Clear
1:15 AM 54.0 °F 50.4 °F 88% 30.21 in 10.0 mi NNW 16.1 mph 23.0 mph N/A   Clear
1:55 AM 53.4 °F 50.2 °F 89% 30.21 in 10.0 mi North 16.1 mph 24.2 mph N/A   Scattered Clouds
2:15 AM 53.1 °F 50.0 °F 89% 30.21 in 10.0 mi North 15.0 mph 21.9 mph N/A   Scattered Clouds
2:35 AM 52.9 °F 49.8 °F 89% 30.21 in 10.0 mi NNW 13.8 mph 21.9 mph N/A   Mostly Cloudy
2:55 AM 52.9 °F 50.0 °F 90% 30.22 in 10.0 mi NNW 11.5 mph 23.0 mph N/A   Overcast
3:15 AM 52.7 °F 49.8 °F 90% 30.22 in 10.0 mi North 10.4 mph - N/A   Overcast
3:35 AM 52.2 °F 49.5 °F 91% 30.23 in 10.0 mi North 10.4 mph - N/A   Overcast
3:55 AM 51.8 °F 48.6 °F 89% 30.24 in 10.0 mi North 15.0 mph 20.7 mph N/A   Scattered Clouds
4:15 AM 51.1 °F 48.2 °F 90% 30.24 in 10.0 mi North 15.0 mph 18.4 mph N/A   Clear
4:35 AM 50.9 °F 48.2 °F 90% 30.25 in 10.0 mi North 12.7 mph 18.4 mph N/A   Clear
4:55 AM 50.2 °F 47.7 °F 91% 30.26 in 10.0 mi North 11.5 mph 19.6 mph N/A   Clear
5:15 AM 50.2 °F 47.5 °F 90% 30.26 in 10.0 mi North 11.5 mph - N/A   Clear
5:35 AM 50.0 °F 47.3 °F 90% 30.27 in 10.0 mi North 8.1 mph - N/A   Scattered Clouds
5:55 AM 50.0 °F 47.3 °F 90% 30.28 in 10.0 mi North 10.4 mph - N/A   Scattered Clouds
6:15 AM 50.0 °F 47.1 °F 90% 30.29 in 10.0 mi North 12.7 mph 17.3 mph N/A   Scattered Clouds
6:35 AM 50.4 °F 47.3 °F 89% 30.29 in 10.0 mi North 11.5 mph 16.1 mph N/A   Mostly Cloudy
6:55 AM 51.3 °F 47.7 °F 87% 30.30 in 10.0 mi North 12.7 mph 17.3 mph N/A   Overcast
7:15 AM 50.9 °F 46.6 °F 85% 30.32 in 10.0 mi North 16.1 mph 24.2 mph N/A   Overcast
7:35 AM 50.0 °F 44.6 °F 82% 30.33 in 10.0 mi North 16.1 mph 24.2 mph N/A   Mostly Cloudy
7:55 AM 49.6 °F 43.7 °F 80% 30.35 in 10.0 mi North 13.8 mph 24.2 mph N/A   Mostly Cloudy
8:15 AM 50.4 °F 44.4 °F 80% 30.35 in 10.0 mi NNW 16.1 mph 20.7 mph N/A   Overcast
8:35 AM 51.3 °F 44.6 °F 78% 30.35 in 10.0 mi North 15.0 mph 21.9 mph N/A   Mostly Cloudy
8:55 AM 52.7 °F 45.0 °F 75% 30.35 in 10.0 mi North 15.0 mph 19.6 mph N/A   Clear
9:15 AM 53.2 °F 45.5 °F 75% 30.35 in 10.0 mi North 10.4 mph 19.6 mph N/A   Clear
9:35 AM 54.1 °F 45.5 °F 73% 30.35 in 10.0 mi North 11.5 mph 18.4 mph N/A   Clear
9:55 AM 55.8 °F 45.5 °F 68% 30.35 in 10.0 mi North 13.8 mph 18.4 mph N/A   Clear
10:15 AM 56.8 °F 44.2 °F 63% 30.35 in 10.0 mi North 10.4 mph 18.4 mph N/A   Clear
10:35 AM 59.0 °F 43.3 °F 56% 30.35 in 10.0 mi North 12.7 mph 18.4 mph N/A   Clear
10:55 AM 60.3 °F 44.6 °F 56% 30.34 in 10.0 mi NNW 13.8 mph 20.7 mph N/A   Clear
11:15 AM 61.0 °F 44.4 °F 54% 30.34 in 10.0 mi North 12.7 mph 17.3 mph N/A   Clear
11:35 AM 61.9 °F 45.1 °F 54% 30.33 in 10.0 mi NNW 13.8 mph 19.6 mph N/A   Clear
11:55 AM 62.6 °F 44.1 °F 51% 30.33 in 10.0 mi North 16.1 mph 20.7 mph N/A   Clear
12:15 PM 63.3 °F 44.2 °F 50% 30.32 in 10.0 mi North 11.5 mph 19.6 mph N/A   Clear
12:35 PM 64.0 °F 42.6 °F 46% 30.32 in 10.0 mi North 13.8 mph 20.7 mph N/A   Clear
12:55 PM 64.8 °F 41.4 °F 42% 30.31 in 10.0 mi North 16.1 mph - N/A   Clear
1:15 PM 65.5 °F 41.9 °F 42% 30.30 in 10.0 mi North 11.5 mph 19.6 mph N/A   Clear
1:35 PM 66.2 °F 42.3 °F 42% 30.30 in 10.0 mi North 9.2 mph - N/A   Clear
1:55 PM 66.2 °F 41.0 °F 40% 30.29 in 10.0 mi North 10.4 mph - N/A   Clear
2:15 PM 66.4 °F 40.8 °F 39% 30.29 in 10.0 mi North 12.7 mph 19.6 mph N/A   Clear
2:35 PM 66.0 °F 39.7 °F 38% 30.28 in 10.0 mi North 13.8 mph 20.7 mph N/A   Clear
2:55 PM 66.2 °F 40.5 °F 39% 30.28 in 10.0 mi North 16.1 mph 21.9 mph N/A   Clear
3:15 PM 66.2 °F 40.6 °F 39% 30.28 in 10.0 mi North 11.5 mph 18.4 mph N/A   Clear
3:35 PM 65.7 °F 40.3 °F 39% 30.28 in 10.0 mi North 11.5 mph 20.7 mph N/A   Clear
3:55 PM 65.3 °F 40.8 °F 41% 30.28 in 10.0 mi North 12.7 mph - N/A   Clear
4:55 PM 61.9 °F 40.1 °F 45% 30.30 in 10.0 mi North 9.2 mph 18.4 mph N/A   Clear
5:15 PM 61.0 °F 40.8 °F 47% 30.31 in 10.0 mi North 13.8 mph 21.9 mph N/A   Clear
5:35 PM 59.9 °F 40.1 °F 48% 30.31 in 10.0 mi North 8.1 mph 23.0 mph N/A   Clear
5:55 PM 58.6 °F 41.4 °F 53% 30.32 in 10.0 mi North 9.2 mph - N/A   Clear
6:15 PM 56.7 °F 43.0 °F 60% 30.33 in 10.0 mi North 8.1 mph - N/A   Clear
6:35 PM 55.6 °F 44.6 °F 67% 30.34 in 10.0 mi NNW 10.4 mph - N/A   Clear
6:55 PM 56.3 °F 44.1 °F 64% 30.34 in 10.0 mi North 8.1 mph - N/A   Clear
7:15 PM 55.9 °F 43.9 °F 64% 30.34 in 10.0 mi North 11.5 mph 16.1 mph N/A   Clear
7:35 PM 55.8 °F 43.9 °F 64% 30.35 in 10.0 mi North 8.1 mph - N/A   Clear
7:55 PM 54.7 °F 44.1 °F 67% 30.36 in 10.0 mi North 8.1 mph - N/A   Clear
8:15 PM 54.5 °F 43.7 °F 67% 30.36 in 10.0 mi North 6.9 mph - N/A   Clear
8:35 PM 54.5 °F 43.7 °F 67% 30.36 in 10.0 mi North 6.9 mph - N/A   Clear
8:55 PM 54.0 °F 43.9 °F 69% 30.36 in 10.0 mi North 6.9 mph - N/A   Clear
9:15 PM 52.2 °F 43.9 °F 73% 30.36 in 10.0 mi North 4.6 mph - N/A   Clear
9:35 PM 52.9 °F 44.2 °F 72% 30.36 in 10.0 mi North 4.6 mph - N/A   Clear
9:55 PM 52.5 °F 44.6 °F 74% 30.37 in 10.0 mi NNW 4.6 mph - N/A   Clear
10:15 PM 52.2 °F 44.2 °F 74% 30.36 in 10.0 mi North 3.5 mph - N/A   Clear
10:35 PM 52.7 °F 44.1 °F 72% 30.36 in 10.0 mi North 5.8 mph - N/A   Clear
10:55 PM 51.8 °F 44.1 °F 75% 30.36 in 10.0 mi NNW 5.8 mph - N/A   Clear
11:15 PM 51.1 °F 44.6 °F 78% 30.35 in 10.0 mi North 6.9 mph - N/A   Clear
11:35 PM 51.4 °F 43.9 °F 75% 30.35 in 10.0 mi North 6.9 mph - N/A   Clear
11:55 PM 51.3 °F 43.7 °F 75% 30.35 in 10.0 mi North 5.8 mph - N/A   Clear